weather.gov     
National Weather Service

Regional Weather Roundup
NWS Homepage
This page is being discontinued on March 12, 2014.
The same data is available at this site. Please update your bookmarks.
Thank you, and we apologize for the inconvenience.
Please send an email to SR-SRH.Webmaster@noaa.gov with any concerns.


Current Version
Previous Version:    01  02  03  04  05  06  07  08  09  10  11  12  13  14  15  16  17  18  19  20  21  22  23  24  25  26  27  28  29  30  
   31  32  33  34  35  36  37  38  39  40  41  42  43  44  45  46  47  48  49  50  51  52  53  54  55  56  57  58  59  60  
[Printable]
930
ASMX46 KSGX 020010
RWRMX

MEXICAN WEATHER ROUNDUP
NATIONAL WEATHER SERVICE SAN DIEGO CA
400 PM PST SUN FEB 01 2015

BAJA CALIFORNIA

CITY           SKY/WX    TMP DP  RH WIND       PRES   REMARKS
LA PAZ         PTSUNNY   70  54  56 N14       29.93
LORETO         MOSUNNY   70  59  68 N21       29.93S
MEXICALI       SUNNY     75  36  23 NW9       30.04
S.J. DEL CABO  PTSUNNY   70  52  52 NW12      29.90S
TIJUANA        SUNNY     70  50  49 NW8       30.06F

NORTHWESTERN MEXICO

CITY           SKY/WX    TMP DP  RH WIND       PRES   REMARKS
CHIHUAHUA      MOCLDY    61  32  33 NE9       30.10
CULIACAN       MOSUNNY   79  59  50 W17       29.87
GUAYMAS        MOSUNNY   75  54  46 SW12      29.86
HERMOSILLO     SUNNY     77  46  33 N6        29.94
JUAREZ         PTCLDY    59  43  55 CALM      30.03
LOS MOCHIS     SUNNY     70  52  52 NW16      29.90S
OBREGON        MOSUNNY   72  52  49 SW8       29.89

NORTHEASTERN MEXICO

CITY           SKY/WX    TMP DP  RH WIND       PRES   REMARKS
MATAMOROS      MOCLDY    72  64  78 SE5       29.92
MONCLOVA       MOCLDY    68  57  68 CALM      29.97
MONTERREY      LGT RAIN  66  63  88 CALM      29.97R FOG
NUEVO LAREDO   CLOUDY    73  55  53 N7        29.95
PIEDRAS NEGRAS PTCLDY    73  55  53 NW9       29.98
REYNOSA        CLOUDY    72  57  60 NW2       29.90
SALTILLO       LGT RAIN  57  54  88 NE7       30.15R
TORREON        PTCLDY    64  48  55 E8        30.05R
VICTORIA       MOCLDY    70  59  68 NW3       29.93

WESTERN MEXICO

CITY           SKY/WX    TMP DP  RH WIND       PRES   REMARKS
AGUASCALIENTES CLOUDY    57  41  54 S14       30.14
COLIMA         CLOUDY    68  61  77 CALM      30.00S
DURANGO        CLOUDY    54  46  76 SE7       30.10R
GUADALAJARA    CLOUDY    64  48  55 CALM      30.08
MANZANILLO     PTSUNNY   81  73  78 SE6       29.83F
MAZATLAN       PTSUNNY   72  63  73 S10       29.86F
PTO. VALLARTA  CLOUDY    70  68  94 CALM      29.88F
TEPIC          LGT RAIN  57  57 100 N5        30.02R VSB 1/2
URUAPAN        CLOUDY    64  54  68 CALM      30.12S
ZACATECAS      CLOUDY    50  41  71 W12       30.17R

CENTRAL MEXICO

CITY           SKY/WX    TMP DP  RH WIND       PRES   REMARKS
CUERNAVACA     PTCLDY    79  39  24 S6        30.03R
LEON           CLOUDY    64  41  42 S5        30.19R
MEXICO CITY    PTCLDY    66  36  32 S16       30.18S
MORELIA        CLOUDY    63  43  48 S14       30.14
POZA RICA      PTCLDY    75  59  57 NE7       29.88R
PUEBLA         PTCLDY    63  32  31 S20       30.19R
QUERETARO      CLOUDY    64  39  39 SW12      30.19R
S. LUIS POTOSI CLOUDY    64  39  39 SW8       30.12R
TAMPICO        MOCLDY    72  61  68 SE7       29.87R
TOLUCA         PTCLDY    63  30  29 S10       30.26R
VERACRUZ       PTCLDY    72  63  73 NE8       29.85R

SOUTHERN MEXICO

CITY           SKY/WX    TMP DP  RH WIND       PRES   REMARKS
ACAPULCO       CLEAR     84  70  61 SW7       29.84R
B. DE HUATULCO MOCLDY    81  73  78 CALM      29.88
MINATITLAN     CLEAR     73  64  73 N12       29.81R
OAXACA         CLEAR     73  39  29 S16       30.08R
PTO. ESCONDIDO PTCLDY    88  72  58 S12       30.02S
TAPACHULA      CLEAR     84  70  61 CALM      29.83R
TUX. GUTIERREZ PTCLDY    90  54  29 CALM      29.83S
VILLAHERMOSA   CLEAR     82  70  65 NE7       29.86R
ZIHUATANEJO    PTCLDY    84  70  61 CALM      29.86R

YUCATAN PENINSULA

CITY           SKY/WX    TMP DP  RH WIND       PRES   REMARKS
CAMPECHE       CLEAR     86  66  51 E12       29.84S
CANCUN         CLEAR     77  68  73 SE6       29.97F
CHETUMAL       CLEAR     81  72  74 SE7       29.92S
C. DEL CARMEN  CLEAR     84  68  58 SE10      29.85S
COZUMEL        PTCLDY    73  68  83 CALM      29.97S
MERIDA         PTCLDY    84  64  51 SE12      29.88R

$$





U.S. Dept. of Commerce
NOAA National Weather Service
1325 East West Highway
Silver Spring, MD 20910
E-mail: w-nws.webmaster@noaa.gov
Page last modified: May 16, 2007
NATIONAL WEATHER SERVICE: for Safety, for Work, for Fun - FOR LIFE